Regional Weather Roundup
Issued by NWS Grand Forks, ND

Home | Current Version | Previous Version | Graphics & Text | Print | Product List | Glossary On
Versions: 1 2 3 4 5 6 7 8 9 10 11 12 13 14 15 16 17 18 19 20 21 22 23 24 25 26 27 28 29 30 31 32 33 34 35 36 37 38 39 40 41 42 43 44 45 46 47 48 49 50
000
ASUS43 KFGF 030810
RWRFGF
PRAIRIE TO PINES  WEATHER ROUNDUP
NATIONAL WEATHER SERVICE EASTERN NORTH DAKOTA/GRAND FORKS ND
300 AM CDT TUE MAY 03 2016

 **SATELLITE DATA USED TO AUGMENT SKY COVER AT AUTOMATED STATIONS**
 *****  WEATHER ACROSS EASTERN NORTH DAKOTA  *****

CITY           SKY/WX    TMP DP  RH WIND       PRES   REMARKS
GRAND FORKS    CLOUDY    52  36  54 W12       29.91F
GRAND FRKS AFB CLOUDY    52  35  53 W12       29.92F
DEVILS LAKE    CLOUDY    49  40  71 SW8       29.95F
FARGO          CLOUDY    46  35  65 W7        29.94F
WAHPETON ARPT  CLOUDY    41  32  70 W6        29.97F
$$

 ***** WEATHER ACROSS CENTRAL AND WESTERN NORTH DAKOTA  *****

CITY           SKY/WX    TMP DP  RH WIND       PRES   REMARKS
BISMARCK       CLOUDY    40  40 100 CALM      30.01F
MINOT          CLOUDY    56  36  47 SW12      29.97S
JAMESTOWN      CLOUDY    38  35  89 SW3       29.97F
MINOT AFB      PTCLDY    49  38  65 SW9       29.95F
GARRISON         N/A     43  35  73 CALM      29.99F
WILLISTON      CLEAR     42  34  73 CALM      30.01F
DICKINSON      CLEAR     36  30  79 W6        30.02R
HETTINGER      CLEAR     31  27  85 CALM      30.06S
$$

 *****  OTHER AIRPORT OBSERVATIONS IN OUR AREA  *****

CITY           SKY/WX    TMP DP  RH WIND       PRES   REMARKS
WALHALLA       FAIR      55  34  44 W14G25    29.87F
GRAFTON AIRPOR FAIR      52  39  62 W10       29.91F
VALLEY CITY AR FAIR      43  41  93 W8        29.99F
CANDO          FAIR      41  34  75 W6        29.97F
CAVALIER APRT  FAIR      55  36  47 W14       29.88F
GWINNER        FAIR      43  39  87 W8        29.99F
ROLLA          CLOUDY    50  36  57 W17       29.94F
 ***** THE ABOVE OBSERVATIONS ARE NON NWS ARE NOT QUALITY
       CONTROLLED AND MAY MIS-REPORT RAIN FOR SNOW...
$$

  *****  WEATHER ACROSS NORTHERN MINNESOTA  *****

CITY           SKY/WX    TMP DP  RH WIND       PRES   REMARKS
FLAG ISLAND    PTCLDY    55  34  44 W13       29.78F
WARROAD        CLOUDY    54  37  54 W16       29.83F
ROSEAU         CLOUDY    55  37  50 W13G18    29.85F
HALLOCK        CLEAR     54  36  50 W15       29.86F
THF RVR FALLS  CLOUDY    50  34  53 W10       29.91F
BAUDETTE       PTCLDY    52  29  41 W10       29.82F
WASKISH        CLOUDY    54  43  66 SW10      29.86F
CROOKSTON      CLOUDY    52  36  54 W10       29.92F
STEPHEN NDAWN    N/A     54  37  54 W12         N/A
GREENBUSH NDAW   N/A     48  37  66 W8          N/A
$$
  *****  WEATHER ACROSS CENTRAL AND WEST MINNESOTA  *****

CITY           SKY/WX    TMP DP  RH WIND       PRES   REMARKS
FOSSTON        MOCLDY    48  34  57 SW7       29.92F
BEMIDJI        CLOUDY    49  36  60 W8        29.90F
PARK RAPIDS    CLOUDY    45  35  68 W7        29.92F
ELBOW LAKE     FAIR      45  36  71 NW6       29.98S
WADENA         CLOUDY    46  34  61 W6        29.94F
DETROIT LAKES  CLOUDY    50  37  62 NW6       29.95F
MOORHEAD       CLOUDY    48  37  66 SW3       29.96F
FERGUS FALLS   CLOUDY    45  36  70 W3        29.96S
MORRIS MN      CLEAR     43  34  70 NW7       29.97F
STAPLES        CLEAR     45  30  57 W5        29.94F
$$
  *****  WEATHER ELSEWHERE ACROSS MINNESOTA  *****

CITY           SKY/WX    TMP DP  RH WIND       PRES   REMARKS
DULUTH         CLEAR     47  31  53 W13       29.88F
INTRNTL FALLS  CLOUDY    46  29  51 SW7       29.81F
ELY            CLOUDY    46  28  49 SW6       29.83F
CLOQUET        CLEAR     52  28  40 W8        29.89F
WHEATON        PTCLDY    46  39  76 SW7       30.00F
BRAINERD       CLEAR     44  33  65 SW5       29.94S
HIBBING        CLOUDY    32  29  88 SW3       29.86F
ALEXANDRIA     PTCLDY    47  36  65 W5        29.97F
SAINT CLOUD    CLEAR     43  35  73 CALM      29.95F
MINNEAPOLIS    CLEAR     52  36  54 W5        29.97F
$$

  *****  WEATHER ACROSS SOUTH DAKOTA  *****

CITY           SKY/WX    TMP DP  RH WIND       PRES   REMARKS
SIOUX FALLS    CLEAR     39  35  86 CALM      30.02F
BROOKINGS      CLEAR     41  38  89 CALM      30.01S
WATERTOWN      CLEAR     41  37  86 CALM      30.00F
HURON          CLEAR     41  40  96 W5        30.02S
SISSETON         N/A     44  37  76 NW3       29.98F
ABERDEEN       CLOUDY    37  34  89 SW3       30.01F
MITCHELL       CLEAR     45  44  97 S5        30.03S
PIERRE         CLEAR     42  39  89 W8        30.03F
MOBRIDGE       CLOUDY    40  38  93 CALM      29.99S
RAPID CITY     CLEAR     39  34  82 NW9       30.06F
$$

  *****  SOME WEATHER IN NEARBY STATES *****

CITY           SKY/WX    TMP DP  RH WIND       PRES   REMARKS
GLASGOW MT     CLEAR     49  37  63 N6        30.04R
GREAT FALLS MT CLEAR     42  33  70 SW7       30.11S
CHEYENNE WY    CLEAR     43  27  53 NW15      30.16S
SCOTTSBLUFF NE CLEAR     42  37  82 NW12      30.08S
OMAHA NE       CLEAR     45  41  86 SE5       30.04F
DES MOINES IA  CLEAR     47  41  80 CALM      30.04F
DAVENPORT IA   CLEAR     43  40  89 W6        30.01F
CHICAGO IL     PTCLDY    41  34  76 W5        29.97F
EAU CLAIRE WI  CLEAR     45  38  76 SW5       29.94F
LA CROSSE WI   CLEAR     48  41  76 S8        29.97F
$$

  *****  SOME NATIONAL WEATHER *****

CITY           SKY/WX    TMP DP  RH WIND       PRES   REMARKS
LA GUARDIA NY  LGT RAIN  54  52  94 NE8       29.86F FOG
RALEIGH NC     RAIN      66  64  93 CALM      29.87F FOG
ATLANTA GA     MOCLDY    67  62  84 W8        29.89S
NEW ORLEANS LA PTCLDY    69  65  86 W3        29.92S
OKLAHOMA CITY  PTCLDY    44  41  89 SW3       30.08F
ALBUQUERQUE NM CLOUDY    53  36  52 S7        30.18F
SALT LAKE CITY CLEAR     52  35  52 SE7       30.19R
LOS ANGELES CA CLEAR     59  54  83 CALM      29.99F
BOISE ID       CLEAR     56  32  40 SE8       30.10S
SEATTLE WA     PTCLDY    65  44  46 CALM      29.98R
$$

*** WEATHER ACROSS MANITOBA...SASKATCHEWAN AND ONTARIO ***
                ***ONTARIO***

CITY           SKY/WX    TMP DP  RH WIND       PRES   REMARKS
GERALDTON      CLOUDY    50  30  46 SW9       29.73F
THUNDER BAY    CLOUDY    37  34  87 NW2       29.78F
SIOUX LOOKOUT  CLOUDY    54  28  37 W6        29.69F
TORONTO        MOCLDY    46  39  76 N2        29.95F
BIG TROUT LK   CLOUDY    39  37  93 N16G22    29.58S
PICKLE LAKE    NOT AVBL
DRYDEN         CLOUDY    52  28  40 W12       29.72F
KENORA         MOCLDY    50  34  53 W7        29.77F
$$
                *** MANITOBA***

CITY           SKY/WX    TMP DP  RH WIND       PRES   REMARKS
BRANDON        PTCLDY    43  36  75 NW9       29.90F
DAUPHIN        CLEAR     54  30  40 N13G18    29.92R
ISLAND LAKE    NOT AVBL
PILOT MOUND      N/A     48  36  61 W9          N/A
THE PAS        CLEAR     45  28  53 N8        29.99R
THOMPSON       MOCLDY    41  30  65 N9G20     29.93R
WINNIPEG       MOCLDY    54  37  54 W13       29.82F
LYNN LAKE      CLEAR     34  30  86 NW7       30.03R
CHURCHILL      FLURRIES  30  28  93 N23G31    29.92R WCI  17
GILLAM         FLURRIES  34  32  93 N18       29.87R WCI  23
$$
                ***SASKATCHEWAN***

CITY           SKY/WX    TMP DP  RH WIND       PRES   REMARKS
ESTEVAN        CLEAR     37  32  81 W5        29.98F
KINDERSLEY     CLEAR     50  36  57 CALM      30.02S
LLOYDMINSTER   CLEAR     59  37  44 SW9       29.99S
PRINCE ALBERT  PTCLDY    50  36  57 E6        30.01R
REGINA         CLEAR     45  27  49 W5        30.00S
YORKTON        CLEAR     50  37  62 N6        29.97R
N. BATTLEFORD  CLEAR     54  37  54 E8        30.02S
LA RONGE       CLEAR     41  32  70 CALM      30.05R
SASKATOON      CLEAR     48  41  76 VRB2      30.02R
SWIFT CURRENT  CLEAR     52  34  50 S10       30.04S
$$
NOTE: THESE ARE AUTOMATED STATIONS WITH LIMITED QUALITY CONTROL
      "FAIR" INDICATES FEW OR NO CLOUDS BELOW 12,000 FEET WITH NO
      SIGNIFICANT WEATHER AND/OR OBSTRUCTIONS TO VISIBILITY.
      SKY/WX - SKY CONDITION AND SIGNIFICANT WEATHER.
      TMP - AIR TEMPERATURE.    DP   - DEWPOINT TEMPERATURE.
      RH  - RELATIVE HUMIDITY.  PRES - PRESSURE.
      HX  - HEAT INDEX.         WCI  - WIND CHILL INDEX.
$




USA.gov is the U.S. government's official web portal to all federal, state and local government web resources and services.